Wind_Speed
26 24 22 21 20 21 22 21 21 23 22 21 20 19 16 17 17 15 15 14 14 13 11 9 8 7 5 4 3 3 5 6 8 10 11 11 12 13 16 16 16 17 17 17
27 25 23 21 21 21 21 20 22 22 23 22 21 20 20 18 18 18 16 15 14 13 12 11 10 8 7 6 6 6 5 7 8 9 11 12 12 13 15 16 17 17 17 18
27 24 25 22 20 21 20 21 23 24 25 25 24 23 24 23 20 19 18 17 16 14 13 12 12 11 10 9 9 9 9 9 10 11 12 13 14 14 15 16 17 17 17 18
26 26 26 23 24 23 23 24 24 28 29 28 28 27 27 25 22 20 20 18 17 16 15 14 13 13 13 12 11 11 12 12 11 12 13 15 16 16 17 17 18 18 18 19
28 26 26 26 25 24 24 25 25 27 27 27 27 27 27 25 22 21 21 20 19 18 17 16 16 16 15 15 14 14 14 14 14 14 15 16 17 17 18 19 20 21 22 22
30 29 29 28 27 26 27 29 27 27 27 27 27 27 27 25 24 24 23 22 21 20 19 18 18 17 17 17 16 16 16 16 16 17 17 18 19 18 20 21 22 23 24 25
29 29 30 32 29 28 28 28 27 27 26 26 26 24 25 26 26 25 25 23 23 22 21 20 20 19 19 18 18 18 17 18 18 19 19 19 20 21 21 22 23 25 26 26
29 30 33 31 28 29 27 25 25 25 26 26 25 24 25 25 26 26 25 24 24 24 23 22 21 21 20 20 20 20 20 20 20 20 20 21 21 21 22 23 24 25 26 28
29 30 30 27 25 24 24 23 23 23 23 25 25 25 25 24 25 25 26 26 25 25 24 24 24 23 22 22 22 22 22 22 21 22 23 23 23 24 25 26 26 28 29 30
28 28 26 24 25 24 24 24 24 24 24 25 26 25 24 23 24 24 25 25 25 25 25 25 25 25 24 23 23 24 24 24 24 24 24 25 25 26 28 28 29 29 30 31
26 26 25 23 24 24 22 22 23 23 23 23 23 24 23 23 23 23 23 24 24 24 24 25 25 25 25 24 25 25 26 27 27 26 26 27 27 27 28 29 30 30 31 32
23 22 22 23 23 23 22 21 22 22 22 22 23 23 22 21 21 22 22 21 21 22 22 23 24 25 25 24 25 25 25 26 27 27 28 29 29 29 30 30 30 30 32 32
22 22 22 21 21 21 19 19 20 21 21 21 21 21 20 20 20 20 20 20 21 21 21 21 22 23 24 25 26 26 26 27 27 28 29 30 30 30 30 31 32 33 33 33
20 20 20 20 20 18 17 17 18 19 19 18 18 18 19 18 19 19 20 20 20 20 21 21 22 22 23 24 25 26 26 26 27 28 28 29 29 30 31 31 31 32 32 33
18 18 19 19 18 17 16 16 17 16 16 17 17 17 17 17 17 18 19 19 20 20 21 21 21 22 22 22 22 23 23 23 23 24 25 25 26 27 27 28 30 31 32 33
17 18 17 18 18 17 16 15 16 15 14 15 15 16 16 17 16 17 17 17 18 18 19 18 18 18 18 18 18 18 19 20 20 21 22 24 25 27 28 29 30 32 33 35
16 16 16 16 16 15 14 14 14 14 14 13 13 13 13 12 13 14 15 15 15 15 15 15 14 14 14 15 17 18 19 20 21 22 23 25 26 28 30 32 34 35 36 37
15 15 15 15 14 14 13 12 12 11 11 11 10 10 10 9 9 10 9 10 10 10 11 12 12 12 13 14 16 17 19 20 22 24 26 28 29 31 33 34 36 37 38 39
16 15 14 14 13 13 13 12 12 12 11 10 10 10 9 9 8 8 9 9 9 10 10 11 12 13 14 16 18 20 22 23 25 27 29 30 32 34 35 36 38 39 40 42
16 15 14 13 13 12 13 13 12 11 11 11 10 10 10 10 10 10 10 10 11 11 12 13 14 16 18 19 21 23 25 27 29 30 31 32 34 35 37 38 39 40 40 41
15 14 14 14 14 14 13 13 13 12 12 11 11 11 11 12 11 11 11 12 12 14 15 16 17 19 20 22 24 25 27 29 30 32 33 34 35 36 37 38 38 38 38 38
16 15 15 14 14 14 13 12 12 12 12 13 13 13 13 13 13 13 13 14 15 16 17 18 20 22 24 25 27 28 29 31 32 33 34 35 35 36 36 37 36 36 36 36
16 16 15 15 15 14 13 13 13 13 13 13 14 14 14 14 14 15 15 16 17 19 20 22 23 25 27 28 29 30 31 32 33 33 34 34 35 35 35 35 35 34 34 34
15 15 15 15 15 14 13 14 14 14 14 14 15 15 15 15 16 17 18 19 20 22 23 25 26 28 29 30 31 31 32 32 33 33 34 34 34 34 34 34 33 33 32 32
14 14 14 14 14 14 14 14 14 15 16 16 16 16 16 16 17 18 20 21 23 24 26 27 28 29 30 31 31 32 32 32 33 33 34 34 33 33 32 32 31 31 31 31
14 14 14 14 14 14 14 14 15 15 16 16 17 17 18 18 19 21 22 24 25 26 27 28 29 30 30 31 31 32 32 32 32 32 32 32 31 31 31 30 30 30 30 30
14 14 14 14 14 14 14 15 16 16 16 16 17 18 19 20 21 22 23 24 25 26 27 28 29 30 31 31 31 31 32 31 31 31 31 31 31 31 30 29 29 28 28 28
Wind_Direction
221 229 228 228 222 224 229 233 242 244 250 261 262 263 262 264 269 276 277 276 278 277 276 280 284 286 286 273 257 236 226 222 218 216 216 217 220 223 225 225 228 231 233 236
224 232 235 230 218 220 228 235 241 248 256 255 260 260 262 265 266 270 270 271 274 273 273 273 273 275 271 266 263 254 244 233 226 222 219 223 227 230 230 231 234 236 240 243
225 228 237 239 230 229 230 236 242 246 250 253 255 258 262 264 265 264 264 266 268 268 268 269 268 267 267 262 260 256 253 248 239 235 233 233 237 238 238 238 240 243 247 249
225 227 233 234 235 235 235 238 241 246 250 253 256 257 260 260 260 260 260 262 262 263 262 263 265 267 268 264 260 257 251 249 248 246 242 241 244 246 245 246 247 248 251 254
225 230 233 235 238 238 238 243 243 250 251 253 254 257 259 258 258 259 260 261 261 261 260 262 264 264 265 264 261 259 254 252 254 255 252 249 250 251 250 250 252 253 255 257
227 229 231 234 235 237 243 249 252 254 255 257 257 257 257 258 258 257 257 258 259 259 260 260 262 262 263 263 262 260 256 258 259 262 262 257 255 254 253 253 255 256 258 260
229 232 235 236 236 240 244 248 251 254 258 259 259 258 258 258 258 256 256 257 257 257 259 261 262 262 262 261 259 260 259 260 262 264 265 265 261 257 259 260 260 260 262 263
232 235 238 241 242 244 246 249 250 253 255 255 256 258 259 259 257 256 257 257 258 257 257 259 260 260 262 260 259 260 261 260 262 265 268 268 265 265 264 265 264 265 265 266
233 239 245 246 245 244 248 252 253 254 254 255 257 259 259 259 257 257 257 257 257 256 256 257 258 258 260 261 261 262 263 263 262 266 269 269 269 269 269 268 268 269 269 271
236 239 242 246 248 250 253 254 256 256 257 258 258 259 259 259 258 258 258 258 256 255 255 256 257 257 259 261 262 262 263 264 265 267 270 273 273 271 271 273 273 273 272 272
237 240 244 249 251 252 253 253 252 254 257 257 258 258 257 257 258 257 257 256 255 254 254 254 256 257 258 260 263 264 264 265 266 268 271 272 273 275 274 275 275 275 275 275
237 243 246 249 251 252 253 252 250 252 254 254 257 257 255 255 255 254 254 254 254 253 255 256 257 258 259 261 263 265 266 266 266 269 271 271 272 274 275 276 277 279 278 278
237 242 246 248 248 249 251 248 250 251 253 255 255 253 251 253 252 250 251 254 255 256 257 259 260 262 263 264 264 265 267 269 269 270 272 273 274 275 277 279 280 282 282 282
240 242 244 245 246 247 249 246 246 247 250 250 251 249 248 249 249 249 250 253 256 257 257 260 262 263 265 266 266 264 266 268 270 272 274 275 277 279 280 280 281 282 284 285
241 243 243 243 242 245 246 245 246 248 248 249 249 249 247 246 248 250 254 257 258 258 259 260 261 264 265 265 266 267 268 269 272 275 279 282 284 286 286 286 286 288 289 290
238 239 239 239 240 243 242 241 243 243 245 247 245 243 244 244 246 248 251 255 255 256 258 260 262 263 264 268 271 273 276 278 280 283 284 286 288 290 290 291 292 292 293 294
233 232 235 237 236 236 236 236 235 235 238 238 235 237 239 241 243 245 248 252 255 256 258 260 262 265 271 275 277 278 279 281 283 286 288 289 291 293 294 294 295 296 295 295
230 231 232 233 230 228 230 230 229 232 235 233 233 236 241 247 249 246 248 255 260 262 264 266 270 277 281 283 285 285 286 288 289 291 293 294 295 296 296 296 298 298 297 298
226 226 226 225 222 223 225 226 227 230 232 232 232 236 240 246 251 255 258 263 269 273 277 281 285 287 289 290 290 291 293 293 294 295 296 296 297 297 298 299 299 299 299 299
225 223 220 219 221 222 224 226 226 230 231 234 240 243 248 254 259 262 265 269 274 278 283 288 290 292 294 296 298 298 298 298 299 299 298 298 299 299 300 300 300 300 300 299
221 219 219 221 221 222 224 224 226 231 234 240 244 247 255 262 266 269 272 277 280 283 286 290 293 296 298 300 300 301 302 302 302 301 301 301 301 301 301 301 300 299 299 298
217 217 217 218 220 222 223 225 230 235 239 244 247 252 257 262 266 271 277 282 285 288 291 294 297 299 300 301 301 302 303 303 303 302 303 303 303 302 301 301 300 299 299 298
210 211 214 216 219 223 226 231 236 239 243 251 255 255 258 264 270 276 280 284 287 290 294 297 299 300 301 302 302 302 303 303 303 303 304 304 305 304 303 302 301 301 300 299
213 214 215 219 222 228 232 237 241 245 251 256 259 261 265 270 276 281 284 287 290 293 296 298 299 300 301 302 303 303 304 304 304 304 305 305 305 304 303 302 302 302 301 301
215 219 225 228 232 237 239 241 248 255 259 259 262 268 272 276 282 286 288 291 293 294 296 298 299 300 301 302 303 304 304 304 305 305 305 306 305 304 303 303 302 302 302 302
223 226 229 235 240 243 246 249 255 259 259 261 266 272 276 279 282 286 289 292 293 295 296 298 298 299 301 302 304 304 305 305 306 306 306 305 304 304 304 304 304 304 303 304
228 230 235 240 245 247 249 253 258 261 263 267 273 278 281 283 286 289 291 294 295 296 297 297 299 300 302 303 304 305 305 305 305 306 305 305 304 304 304 304 304 305 306 307
Height
5788 5789 5792 5794 5797 5801 5803 5805 5807 5807 5807 5806 5806 5806 5806 5807 5807 5809 5811 5811 5812 5812 5812 5811 5812 5812 5813 5813 5814 5815 5816 5817 5818 5820 5822 5824 5826 5828 5831 5833 5835 5838 5840 5841
5783 5785 5786 5789 5792 5795 5798 5800 5801 5801 5801 5801 5802 5802 5802 5802 5804 5806 5808 5809 5810 5810 5810 5810 5811 5811 5812 5813 5814 5814 5815 5816 5817 5819 5820 5822 5824 5826 5828 5830 5832 5834 5836 5837
5777 5780 5781 5784 5787 5790 5792 5794 5796 5796 5795 5796 5798 5799 5799 5800 5800 5803 5805 5806 5807 5807 5808 5808 5809 5809 5810 5811 5812 5813 5814 5815 5816 5817 5818 5820 5822 5824 5825 5827 5829 5830 5832 5833
5772 5775 5776 5781 5781 5783 5786 5788 5788 5788 5789 5791 5793 5794 5795 5796 5797 5798 5800 5802 5804 5804 5805 5806 5806 5807 5808 5809 5810 5811 5812 5813 5814 5814 5815 5817 5818 5820 5822 5823 5825 5826 5828 5829
5766 5768 5771 5774 5775 5778 5780 5779 5780 5781 5784 5786 5787 5788 5789 5790 5792 5794 5796 5798 5799 5800 5801 5803 5803 5804 5805 5806 5807 5808 5808 5809 5810 5811 5812 5813 5814 5815 5817 5818 5820 5821 5822 5823
5759 5762 5764 5766 5767 5770 5774 5774 5774 5776 5778 5780 5781 5783 5785 5785 5788 5790 5792 5793 5795 5796 5797 5798 5800 5800 5801 5802 5803 5804 5804 5805 5806 5807 5808 5809 5809 5810 5811 5812 5814 5815 5816 5817
5752 5755 5757 5758 5761 5765 5768 5768 5769 5771 5772 5774 5775 5777 5779 5781 5783 5785 5786 5788 5789 5791 5792 5793 5795 5796 5797 5798 5799 5800 5800 5801 5802 5802 5802 5803 5804 5805 5806 5806 5807 5808 5809 5810
5746 5749 5751 5752 5755 5759 5760 5762 5763 5765 5766 5768 5769 5771 5773 5775 5777 5779 5780 5782 5783 5785 5787 5788 5789 5791 5792 5793 5794 5795 5796 5796 5797 5797 5797 5798 5799 5799 5800 5800 5801 5801 5801 5802
5740 5743 5744 5746 5749 5751 5753 5755 5756 5758 5760 5762 5763 5765 5767 5769 5771 5772 5774 5776 5777 5779 5781 5782 5784 5785 5786 5788 5789 5789 5790 5791 5791 5792 5792 5792 5793 5794 5794 5794 5794 5794 5794 5794
5733 5735 5738 5741 5743 5745 5747 5749 5751 5752 5754 5755 5757 5759 5761 5763 5764 5766 5767 5769 5771 5773 5774 5776 5777 5779 5780 5781 5783 5783 5784 5785 5785 5786 5786 5786 5787 5787 5787 5787 5786 5786 5785 5785
5727 5730 5733 5735 5738 5740 5742 5743 5745 5747 5748 5750 5751 5753 5755 5757 5758 5760 5761 5763 5765 5766 5768 5770 5771 5773 5774 5775 5776 5777 5777 5778 5778 5779 5779 5780 5779 5779 5779 5779 5779 5778 5777 5776
5722 5725 5728 5731 5733 5735 5736 5738 5740 5742 5743 5744 5746 5748 5749 5751 5753 5754 5756 5757 5759 5761 5762 5763 5765 5766 5767 5768 5769 5770 5770 5771 5771 5772 5772 5772 5772 5772 5771 5771 5771 5769 5768 5767
5718 5720 5723 5726 5728 5729 5731 5732 5734 5736 5738 5739 5741 5742 5744 5746 5747 5749 5751 5752 5754 5755 5757 5758 5759 5760 5761 5761 5762 5763 5763 5764 5764 5765 5765 5765 5765 5764 5764 5763 5762 5761 5760 5758
5713 5716 5719 5721 5723 5724 5726 5728 5729 5731 5733 5735 5736 5737 5739 5741 5743 5744 5746 5747 5749 5750 5751 5752 5753 5754 5755 5755 5756 5756 5756 5757 5757 5757 5757 5757 5756 5756 5755 5754 5753 5751 5750 5748
5709 5712 5715 5716 5718 5720 5722 5723 5725 5727 5729 5730 5732 5733 5735 5737 5738 5740 5742 5743 5744 5745 5746 5747 5748 5748 5749 5749 5750 5750 5750 5751 5751 5751 5750 5749 5748 5747 5746 5745 5743 5742 5741 5739
5706 5709 5711 5713 5715 5717 5718 5720 5722 5723 5725 5727 5728 5730 5731 5733 5734 5736 5737 5738 5739 5740 5741 5742 5743 5743 5744 5744 5744 5745 5745 5745 5745 5744 5744 5743 5742 5740 5739 5737 5735 5733 5731 5728
5703 5705 5707 5709 5711 5713 5715 5717 5719 5720 5722 5724 5725 5727 5728 5729 5731 5732 5733 5734 5735 5736 5737 5737 5738 5739 5739 5739 5739 5739 5739 5739 5739 5738 5737 5736 5734 5732 5730 5728 5726 5723 5721 5718
5699 5701 5703 5706 5708 5710 5712 5714 5716 5718 5719 5721 5723 5724 5726 5727 5728 5729 5730 5731 5732 5733 5734 5734 5734 5734 5735 5735 5734 5734 5734 5733 5732 5731 5730 5728 5725 5723 5721 5718 5715 5712 5709 5706
5696 5698 5700 5703 5705 5706 5709 5712 5714 5716 5718 5719 5721 5722 5724 5725 5726 5727 5728 5729 5730 5730 5730 5730 5730 5730 5730 5730 5729 5729 5727 5726 5725 5723 5721 5718 5716 5713 5711 5707 5704 5701 5697 5694
5693 5695 5698 5700 5702 5705 5707 5709 5711 5713 5715 5717 5719 5720 5722 5723 5723 5724 5725 5726 5726 5726 5727 5727 5727 5726 5725 5724 5723 5722 5720 5718 5716 5713 5711 5708 5706 5703 5699 5696 5693 5689 5685 5682
5690 5693 5695 5698 5700 5703 5705 5707 5709 5711 5713 5715 5716 5718 5719 5720 5720 5721 5722 5722 5722 5722 5722 5722 5722 5720 5719 5718 5716 5714 5712 5709 5707 5704 5701 5698 5695 5692 5688 5685 5681 5678 5674 5670
5688 5690 5693 5695 5698 5700 5702 5705 5707 5709 5710 5712 5713 5714 5715 5716 5717 5718 5718 5718 5718 5718 5717 5717 5715 5714 5712 5711 5709 5706 5704 5701 5698 5695 5691 5688 5685 5681 5678 5674 5670 5667 5663 5659
5686 5688 5691 5693 5696 5698 5700 5702 5704 5705 5707 5708 5709 5710 5711 5712 5712 5713 5713 5713 5713 5712 5711 5710 5708 5707 5705 5703 5701 5698 5695 5692 5689 5685 5682 5678 5675 5671 5668 5664 5660 5657 5653 5649
5684 5686 5689 5691 5693 5695 5697 5699 5700 5702 5703 5704 5705 5706 5706 5707 5707 5707 5707 5707 5706 5705 5704 5702 5701 5699 5697 5694 5691 5688 5685 5682 5679 5676 5672 5669 5665 5661 5658 5654 5650 5647 5643 5640
5682 5684 5686 5689 5691 5692 5694 5695 5697 5698 5699 5700 5701 5701 5702 5702 5702 5702 5701 5700 5699 5698 5696 5694 5692 5690 5688 5685 5682 5679 5676 5673 5670 5666 5663 5659 5655 5652 5648 5645 5641 5638 5635 5631
5680 5682 5684 5686 5687 5689 5690 5691 5693 5694 5694 5695 5695 5696 5696 5696 5695 5695 5694 5693 5691 5690 5688 5686 5684 5682 5679 5676 5673 5670 5667 5664 5660 5657 5653 5650 5646 5643 5639 5636 5633 5629 5626 5622
5678 5679 5681 5682 5684 5685 5686 5687 5688 5689 5689 5690 5690 5690 5690 5689 5689 5688 5687 5686 5684 5682 5680 5678 5676 5673 5670 5667 5664 5661 5658 5655 5651 5648 5645 5641 5638 5634 5631 5628 5624 5621 5618 5614